Retour au catalogue

STARLINK-31323

ActifCommunicationsVLEO
NORAD 58882·PAYLOAD·🇺🇸 United States

Lancé Jan 29, 2024 depuis Vandenberg Space Force Base

Loading…

Prochains Passages (prochaines 24 heures)

TLE

FraisSource: CelesTrak SupGP

Époque: Sep 14, 2026, 21:24 UTC

1 58882C 24020G   26257.89215278 -.00035730  00000+0 -10553-2 0  2575
2 58882  53.1576 159.8921 0001328 102.6693 166.6065 15.34420370    16

Suivez STARLINK-31323 en temps réel avec AllMySat

Download on the App Store